Location: *
(51.1248°S, 108.4023°W)
Time: 13:09:12
(UTC+00:00)

USA 281 - Visible Passes

Search period start: 22 October 2021 00:00
Search period end: 01 November 2021 00:00
Orbit: 1078 x 1081 km, 106.0° (Epoch: 15 October)

Date Brightness Start Highest point End Pass type
(mag) Time Alt. Az. Time Alt. Az. Time Alt. Az.
22 Oct 3.7 03:14:42 10° NNE 03:21:13 61° WNW 03:27:50 10° SSW visible
22 Oct 5.5 05:04:09 10° WNW 05:07:01 13° W 05:09:53 10° WSW visible
23 Oct 3.3 02:25:01 10° NE 02:31:34 71° ESE 02:38:12 10° SSW visible
23 Oct 4.7 04:10:56 10° NNW 04:16:34 30° WNW 04:22:17 10° SW visible
24 Oct 3.7 03:20:02 10° NNE 03:26:33 61° WNW 03:33:09 10° SSW visible
24 Oct 5.5 05:09:31 10° WNW 05:12:20 13° W 05:15:09 10° WSW visible
25 Oct 3.3 02:30:19 10° NE 02:36:54 71° ESE 02:43:31 10° SSW visible
25 Oct 4.7 04:16:16 10° NNW 04:21:53 29° WNW 04:27:35 10° SW visible
26 Oct 3.7 03:25:21 10° NNE 03:31:52 60° WNW 03:38:28 10° SSW visible
26 Oct 5.5 05:14:54 10° WNW 05:17:40 13° W 05:20:26 10° WSW visible
27 Oct 3.3 02:35:38 10° NE 02:42:12 72° ESE 02:48:50 10° SSW visible
27 Oct 4.7 04:21:36 10° NNW 04:27:13 29° WNW 04:32:54 10° SW visible
28 Oct 3.7 03:30:40 10° NNE 03:37:11 60° WNW 03:43:46 10° SSW visible
28 Oct 5.5 05:20:17 10° WNW 05:23:00 13° W 05:25:42 10° WSW visible
29 Oct 3.3 02:40:57 10° NE 02:47:31 72° ESE 02:54:10 10° SSW visible
29 Oct 4.7 04:26:57 10° NNW 04:32:33 29° WNW 04:38:13 10° SW visible
30 Oct 3.7 03:36:00 10° NNE 03:42:30 60° WNW 03:49:05 10° SSW visible
30 Oct 5.5 05:25:40 10° WNW 05:28:19 12° W 05:30:58 10° WSW visible
31 Oct 3.3 02:46:15 10° NE 02:52:50 73° ESE 02:59:29 10° SSW visible
31 Oct 4.7 04:32:17 10° NNW 04:37:52 29° WNW 04:43:30 10° SW visible
